Location: DARK SKY Beskydy - Park tmavé oblohy, www.darkskybeskydy.cz
(49.4926°N, 18.5016°E)
Time: 04:19:20
(UTC+02:00)

A-11 Canister half - Pass Details

Date: 28 February 2024
Orbit: 1513 x 1686 km, 47.2° (Epoch: 24 April)

Event Time Altitude Azimuth Distance (km) Brightness Sun altitude
Rises 02:20:34 0° 248° (WSW) 4,936 - -39.2°
Reaches altitude 10° 02:23:45 10° 246° (WSW) 3,947 - -38.8°
Maximum altitude 02:33:51 72° 165° (SSE) 1,734 - -37.6°
Exits shadow 02:34:25 71° 142° (SE) 1,744 9.1 -37.5°
Drops below altitude 10° 02:43:43 10° 84° (E) 3,865 11.7 -36.3°
Sets 02:46:48 0° 82° (E) 4,830 12.4 -35.9°
